TimeEST,TemperatureF,Dew PointF,Humidity,Sea Level PressureIn,VisibilityMPH,Wind Direction,Wind SpeedMPH,Gust SpeedMPH,PrecipitationIn,Events,Conditions,WindDirDegrees,DateUTC
12:54 AM,30.9,30.0,96,29.84,10.0,West,12.7,-,N/A,,Overcast,260,2013-01-17 05:54:00
1:38 AM,30.9,28.9,92,29.81,10.0,West,10.4,-,N/A,,Mostly Cloudy,260,2013-01-17 06:38:00
1:54 AM,30.9,28.9,92,29.85,10.0,WSW,10.4,-,N/A,,Mostly Cloudy,250,2013-01-17 06:54:00
2:21 AM,30.9,28.9,92,29.82,10.0,West,11.5,-,N/A,,Overcast,260,2013-01-17 07:21:00
2:54 AM,30.0,28.9,96,29.85,10.0,West,11.5,20.7,N/A,,Scattered Clouds,260,2013-01-17 07:54:00
3:54 AM,30.0,28.0,92,29.84,10.0,West,16.1,24.2,N/A,,Partly Cloudy,270,2013-01-17 08:54:00
4:54 AM,30.0,27.0,88,29.83,10.0,West,13.8,-,N/A,,Clear,270,2013-01-17 09:54:00
5:54 AM,30.0,25.0,82,29.86,10.0,West,16.1,24.2,N/A,,Clear,270,2013-01-17 10:54:00
6:54 AM,28.9,25.0,85,29.88,10.0,West,16.1,-,N/A,,Clear,270,2013-01-17 11:54:00
7:54 AM,30.0,25.0,82,29.92,10.0,West,16.1,25.3,N/A,,Clear,270,2013-01-17 12:54:00
8:54 AM,30.9,25.0,79,29.94,10.0,West,16.1,-,N/A,,Clear,270,2013-01-17 13:54:00
9:54 AM,32.0,27.0,82,29.96,10.0,West,12.7,-,N/A,,Clear,270,2013-01-17 14:54:00
10:54 AM,34.0,28.0,79,29.96,10.0,West,16.1,23.0,N/A,,Clear,270,2013-01-17 15:54:00
11:54 AM,35.1,28.0,76,29.96,10.0,West,17.3,-,N/A,,Clear,270,2013-01-17 16:54:00
12:54 PM,36.0,28.9,76,29.98,10.0,WNW,11.5,20.7,N/A,,Clear,290,2013-01-17 17:54:00
1:54 PM,37.0,24.1,59,29.98,10.0,WNW,21.9,29.9,N/A,,Clear,290,2013-01-17 18:54:00
2:54 PM,37.0,23.0,57,30.01,10.0,WNW,11.5,-,N/A,,Clear,300,2013-01-17 19:54:00
3:54 PM,35.1,21.9,59,30.01,10.0,WNW,11.5,23.0,N/A,,Clear,290,2013-01-17 20:54:00
4:54 PM,33.1,19.9,59,30.04,10.0,West,11.5,-,N/A,,Partly Cloudy,280,2013-01-17 21:54:00
5:54 PM,32.0,19.0,59,30.06,10.0,West,6.9,-,N/A,,Clear,270,2013-01-17 22:54:00
6:54 PM,30.9,19.0,61,30.06,10.0,NW,8.1,-,N/A,,Partly Cloudy,310,2013-01-17 23:54:00
7:54 PM,30.0,17.1,59,30.09,10.0,NW,9.2,-,N/A,,Clear,320,2013-01-18 00:54:00
8:54 PM,28.9,15.1,56,30.07,10.0,NW,11.5,17.3,N/A,,Clear,310,2013-01-18 01:54:00
9:54 PM,27.0,10.9,51,30.06,10.0,NW,10.4,-,N/A,,Partly Cloudy,320,2013-01-18 02:54:00
10:54 PM,26.1,9.0,49,30.05,10.0,NNW,8.1,-,N/A,,Clear,340,2013-01-18 03:54:00
11:54 PM,26.1,10.0,51,30.05,10.0,NNW,4.6,-,N/A,,Clear,330,2013-01-18 04:54:00